Location: Mount Road
(33.9469°S, 25.5908°E)
Time: 03:11:46
(UTC+00:00)

Daily predictions for brighter satellites

Satellite Brightness Start Highest point End
(mag) Time Altitude Azimuth Time Altitude Azimuth Time Altitude Azimuth
SL-16 R/B 4.2 00:17:50 10° S 00:22:32 25° ESE 00:27:09 10° ENE
Cosmos 2227 Rocket 3.5 00:25:59 34° S 00:25:59 34° S 00:29:15 10° SSE
Cosmos 2297 Rocket 3.5 00:31:12 33° S 00:31:12 33° S 00:34:28 10° S
Cosmos 1818 4.4 00:46:13 44° S 00:46:13 44° S 00:49:59 10° SSE
ADEOS 4.4 00:50:52 42° ENE 00:52:01 49° ESE 00:57:06 10° S
Atlas Centaur 2 3.8 00:56:42 17° ENE 00:56:42 17° ENE 00:57:51 10° ENE
Meteor 2-16 Rocket 4.3 00:51:43 10° S 00:57:43 84° SSW 00:57:43 84° SSW
H-2A R/B 3.2 00:58:31 10° SSE 01:01:31 41° SE 01:01:31 41° SE
Cosmos 1023 Rocket 4.5 01:03:36 10° SSW 01:08:58 80° ESE 01:09:04 79° E
Cosmos 1025 Rocket 3.6 01:08:48 10° S 01:13:07 55° E 01:13:08 55° E
Cosmos 2237 Rocket 4.3 01:08:20 10° SW 01:09:01 13° SW 01:09:01 13° SW
CZ-4B R/B 4.5 01:16:43 10° ESE 01:18:20 13° E 01:19:57 10° ENE
Unknown 4.4 01:19:51 48° E 01:19:51 48° E 01:23:22 10° SE
Unknown 4.3 01:21:26 50° E 01:21:26 50° E 01:25:02 10° SE
Cosmos 676 Rocket 4.1 01:16:21 10° SSW 01:21:46 79° ESE 01:26:05 16° NNE
Okean 1 Rocket 3.4 01:22:22 57° NE 01:22:50 61° E 01:27:12 10° SSE
Unknown 4.1 01:24:37 56° ENE 01:24:37 56° ENE 01:28:21 10° SE
Unknown 4.0 01:25:57 61° E 01:25:57 61° E 01:29:44 10° SE
Unknown 3.9 01:26:32 66° E 01:26:32 66° E 01:30:19 10° SE
Unknown 3.8 01:28:07 69° E 01:28:07 69° E 01:31:58 10° SE
Geosat 4.3 01:23:02 10° SSE 01:28:04 61° ENE 01:29:36 42° N
H-2A R/B 3.0 01:26:16 24° NNE 01:28:54 64° ESE 01:33:26 10° S
Cosmos 1452 Rocket 3.4 01:29:07 66° W 01:29:27 68° WSW 01:34:47 10° SSE
Unknown 3.8 01:31:02 70° ENE 01:31:02 70° ENE 01:35:04 10° SE
Cosmos 2315 Rocket 4.4 01:31:36 43° W 01:31:50 43° W 01:37:56 10° S
SL-16 R/B 2.7 01:26:23 10° S 01:32:25 53° WSW 01:33:29 47° WNW
ASTRO E2 3.6 01:34:32 39° NE 01:34:32 39° NE 01:37:19 10° ENE
OAO 1 Rocket 4.4 01:32:36 56° WSW 01:33:47 86° S 01:39:12 10° E
Unknown 3.6 01:34:14 77° NE 01:34:14 77° NE 01:38:23 10° SE
Unknown 3.6 01:34:30 83° SE 01:34:30 83° SE 01:38:31 10° SE
Unknown 3.7 01:36:07 64° SSW 01:36:07 64° SSW 01:39:57 10° SE
Unknown 3.6 01:35:51 80° NE 01:35:52 80° NE 01:40:05 10° SE
Cosmos 1536 Rocket 3.7 01:32:02 10° SSW 01:35:49 57° SW 01:35:49 57° SW
Unknown 3.5 01:37:25 82° NNE 01:37:30 83° NE 01:41:43 10° SE
Sakura Rocket 3.9 01:38:48 31° NNE 01:38:48 31° NNE 01:41:29 10° ENE
Cosmos 2263 Rocket 2.7 01:35:14 25° N 01:38:24 55° ENE 01:43:53 10° SSE
IDEFIX/ARIANE 42P 2.5 01:37:41 54° NW 01:38:24 60° W 01:43:35 10° SSW
Unknown 3.5 01:39:02 83° N 01:39:10 86° NE 01:43:23 10° SE
Nadezhda 1 Rocket 4.3 01:37:44 10° N 01:43:59 67° E 01:50:13 10° SSE
Unknown 3.5 01:45:21 71° WNW 01:45:45 82° SW 01:49:58 10° SE
Unknown 3.5 01:47:01 68° WNW 01:47:28 79° SW 01:51:42 10° SE
COSMOS 2441 4.3 01:43:58 10° NNE 01:48:49 86° WNW 01:53:44 10° SSW
Unknown 3.5 01:48:36 64° WNW 01:49:07 76° SW 01:53:20 10° SE
Cosmos 1707 3.3 01:46:25 10° S 01:50:19 57° E 01:54:10 10° NNE
Unknown 3.5 01:50:10 61° W 01:50:46 73° SW 01:54:58 10° SE
OAO 2 Rocket 3.2 01:49:31 48° WNW 01:50:54 78° NNE 01:55:56 10° E
Unknown 3.6 01:51:47 58° W 01:52:25 70° SW 01:56:38 10° SE
USA 32 4.1 01:47:55 10° S 01:53:13 77° E 01:58:27 10° N
Cosmos 1110 Rocket 4.3 01:50:53 19° N 01:54:37 64° ENE 01:59:48 10° SSE
Meteor 1-15 Rocket 4.5 01:49:24 10° N 01:54:56 68° E 02:00:32 10° SSE
Unknown 3.7 01:55:00 52° W 01:55:47 65° SW 01:59:58 10° SE
PSLV R/B 4.5 01:58:12 30° WSW 01:58:12 30° WSW 02:01:05 10° SSW
Starlink (trailer) 3.7 01:56:34 49° W 01:57:25 63° SW 02:01:36 10° SE
SeaSat 1 3.9 01:54:19 10° NE 01:58:53 39° ESE 02:03:30 10° S
CZ-4C R/B 3.6 01:55:53 10° S 01:58:17 36° SW 01:58:17 36° SW
Unknown 3.8 01:58:10 47° W 01:59:05 60° SW 02:03:15 10° SE
Cosmos 1850 Rocket 4.4 01:54:42 10° S 02:00:02 65° ESE 02:05:15 10° NNE
CZ-4B R/B 3.2 01:57:02 10° NNE 02:00:35 57° ESE 02:04:12 10° S
Unknown 3.8 01:59:46 45° W 02:00:45 58° SW 02:04:54 10° SE
MSX 4.0 02:00:51 10° N 02:06:25 50° W 02:12:04 10° SSW
SL-16 R/B 2.6 02:01:27 10° SW 02:06:41 38° WNW 02:11:51 10° N
Unknown 4.0 02:05:49 36° W 02:07:03 49° SW 02:11:10 10° SE
Meteor 1-4 Rocket 2.6 02:03:23 10° S 02:07:11 86° E 02:10:52 10° N
Unknown 4.0 02:06:09 36° W 02:07:24 50° SW 02:11:31 10° SE
Cosmos 1455 Rocket 4.0 02:03:46 10° NNE 02:07:56 47° E 02:12:11 10° SSE
Cosmos 1607 4.2 02:04:37 28° NW 02:07:57 57° WSW 02:14:17 10° SSE
Unknown 4.0 02:06:45 36° W 02:08:01 49° SW 02:12:08 10° SE
Unknown 4.2 02:10:04 32° W 02:11:28 45° SW 02:15:31 10° SSE
Unknown 4.2 02:10:59 31° W 02:12:26 45° SW 02:16:30 10° SSE
ISS -1.8 02:15:33 17° N 02:15:33 17° N 02:16:39 10° N
Unknown 4.3 02:12:42 29° W 02:14:13 41° SW 02:18:14 10° SSE
CZ-2C R/B 2.3 02:09:24 10° N 02:14:18 67° WNW 02:19:08 10° SSW
Cosmos 371 Rocket 3.5 02:11:15 10° N 02:16:07 73° ENE 02:21:03 10° SSE
Cosmos 2154 Rocket 4.1 02:09:53 10° S 02:16:16 81° E 02:22:30 10° N
Unknown 4.4 02:15:53 27° W 02:17:33 39° SW 02:21:31 10° SSE
Unknown 4.4 02:16:08 27° W 02:17:49 40° SW 02:21:49 10° SSE
Unknown 4.4 02:17:22 26° W 02:19:07 39° SW 02:23:05 10° SSE
SL-08 R/B 4.1 02:17:22 10° S 02:21:44 33° WSW 02:24:01 22° WNW
Unknown 4.4 02:20:23 24° W 02:22:17 38° SW 02:26:14 10° SSE
Cosmos 1184 Rocket 4.2 02:20:11 10° NNE 02:23:15 40° E 02:26:22 10° SSE
Cosmos 1610 Rocket 4.4 02:18:19 10° S 02:24:31 79° W 02:30:42 10° N
Cosmos 389 Rocket 3.3 02:21:36 10° SSW 02:24:44 30° W 02:25:46 25° NW
Cosmos 2184 Rocket 4.2 02:19:48 10° SSW 02:25:46 49° W 02:31:40 10° NNW
CZ-3B R/B 1.9 02:26:52 12° N 02:26:52 12° N 02:27:25 10° NNE
Okean 1-7 Rocket 3.8 02:22:26 10° S 02:26:54 72° E 02:31:17 10° NNE
Meteor 1-31 Rocket 2.8 02:23:29 10° N 02:27:15 56° W 02:31:07 10° SSW
Cosmos 405 Rocket 3.8 02:28:07 22° WNW 02:29:17 26° WSW 02:32:36 10° SSW
Aureole 3 4.3 02:25:37 10° N 02:30:47 88° E 02:37:27 10° S
Timation 1 Rocket 4.3 02:27:03 10° NNW 02:32:57 71° WSW 02:39:01 10° SSE
CZ-3 R/B 4.4 02:17:01 10° NNW 02:33:04 23° N 02:39:44 10° ENE
Cosmos 1331 Rocket 4.1 02:29:53 11° NNW 02:34:45 57° WSW 02:39:59 10° S
Cosmos 1844 Rocket 4.5 02:30:42 10° NNE 02:35:33 32° ENE 02:40:28 10° SE
FALCON 9 R/B 1.8 02:34:00 19° W 02:36:05 54° NNW 02:43:17 10° ENE
Cosmos 909 Rocket 4.5 02:30:02 10° SSW 02:36:56 82° WNW 02:45:30 10° NNE
Meteor 1-28 Rocket 3.2 02:33:31 10° S 02:37:20 69° WSW 02:41:07 10° NNW
Meteor 2-5 Rocket 4.2 02:32:29 10° S 02:38:04 64° E 02:43:40 10° NNE
H-2A R/B 4.1 02:37:45 10° WSW 02:38:05 10° WSW 02:38:26 10° WSW
OAO 3 Rocket 3.2 02:35:02 17° WNW 02:38:37 75° NNE 02:43:21 10° E
Cosmos 2341 Rocket 4.3 02:35:02 10° S 02:41:29 74° E 02:47:48 10° NNE
Cosmos 1943 3.4 02:35:57 10° SSW 02:41:42 79° ESE 02:47:23 10° NNE
Atlas Centaur 2 2.7 02:39:20 16° WNW 02:42:02 28° NNW 02:46:31 10° NE
Cosmos 1484 Rocket 2.9 02:40:00 10° NNE 02:43:59 88° ESE 02:48:05 10° S
DNEPR-1 R/B 4.1 02:42:33 12° NW 02:46:46 45° WSW 02:50:52 10° SSE
Cosmos 1741 Rocket 4.3 02:43:10 10° SSW 02:48:11 43° WNW 02:53:10 10° N
SJ-12 4.2 02:44:31 10° NNE 02:48:40 77° ESE 02:52:53 10° S
Yuri Rocket 3.8 02:45:29 13° WNW 02:48:48 36° N 02:52:54 10° ENE
Cosmos 1437 Rocket 2.7 02:45:18 10° SSW 02:49:19 66° W 02:53:12 10° N
CZ-3A R/B 3.6 02:45:56 10° NW 02:50:02 37° NNE 03:05:59 10° E
CZ-4B R/B 2.5 02:47:38 10° SSW 02:50:44 28° WSW 02:53:45 10° NW
FENGYUN 3A 4.3 02:47:31 10° NNE 02:52:53 64° ESE 02:58:18 10° S
Iridium 96 4.3 02:50:44 10° NNW 02:53:38 53° W 02:56:53 10° S
KORONAS-FOTON 4.2 02:51:21 10° S 02:55:16 68° E 02:59:05 10° NNE
Shenzhou-11 Module 4.0 02:55:43 10° WSW 02:57:43 18° SSW 02:59:44 10° SSE
Cosmos 1689 Rocket 2.9 02:55:16 10° S 02:58:08 33° WSW 03:00:56 10° NW
Cosmos 1302 Rocket 4.1 02:53:17 10° NNW 02:58:34 68° WSW 03:03:52 10° SSE
ATLAS 5 CENTAUR R/B 2.8 02:53:35 10° NW 03:00:39 63° WSW 03:07:19 10° SSE
METEOR-M 4.3 02:55:44 10° NNE 03:01:05 84° ESE 03:06:30 10° S
In-Cosmos 22 4.5 02:57:22 10° SSW 03:02:25 42° W 03:07:22 10° NNW
Cosmos 724 4.4 03:01:19 10° NW 03:07:02 60° WSW 03:12:55 10° SSE
USA 215 3.4 03:02:24 10° NE 03:08:58 88° NW 03:15:36 10° SW
Cosmos 332 Rocket 4.5 03:06:30 10° NW 03:11:00 36° WSW 03:15:32 10° S
SL-8 Rocket 4.1 03:04:52 10° S 03:11:16 89° W 03:17:33 10° N
Meteor 1-22 Rocket 4.3 03:07:13 10° NNW 03:12:32 59° W 03:18:09 10° S
